Regional Weather Roundup
Issued by NWS

Home | Current Version | Previous Version | Graphics & Text | Print | Product List | Glossary On
Versions: 1 2 3 4 5 6 7 8 9 10 11 12 13 14 15 16 17 18 19 20 21 22 23 24 25 26 27 28 29 30 31 32 33 34 35 36 37 38 39 40 41 42 43 44 45 46 47 48 49 50
000
ASUS45 KBOU 030407
RWRCO

WEATHER ROUNDUP FOR COLORADO
NATIONAL WEATHER SERVICE DENVER/BOULDER CO
1000 PM MDT SAT MAY 02 2015

NOTE: "FAIR" INDICATES FEW OR NO CLOUDS BELOW 12000 FEET WITH NO
SIGNIFICANT WEATHER AND/OR OBSTRUCTIONS TO VISIBILITY.

COZ001>005-013-030-031-030500-
...NORTHWEST COLORADO...

CITY           SKY/WX    TMP DP  RH WIND       PRES   REMARKS
CRAIG          PTCLDY    53  39  59 E8        30.01F
HAYDEN         PTCLDY    48  36  61 E12       30.04S
MEEKER         PTCLDY    50  36  58 NE7       30.04R
MOUNT WERNER   NOT AVBL
STEAMBOAT SPGS PTCLDY    46  37  70 CALM      30.07R
WALDEN         CLOUDY    36  32  87 SE7       30.11S
$$

COZ006>008-011-030500-
...WEST CENTRAL VALLEYS...

CITY           SKY/WX    TMP DP  RH WIND       PRES   REMARKS
GRAND JUNCTION MOCLDY    68  32  26 NE21G26   29.88R
MONTROSE       PTCLDY    64  28  25 S13       29.97R
EAGLE          PTCLDY    52  39  62 CALM      30.11S
RIFLE          PTCLDY    57  35  43 SE7       29.99R
DELTA          PTCLDY    65  32  29 N8        29.92R
NUCLA          PTCLDY    64  18  16 CALM      30.01R
$$

COZ017>023-064>068-030500-
...SOUTHWEST COLORADO...

CITY           SKY/WX    TMP DP  RH WIND       PRES   REMARKS
DURANGO        CLOUDY    57  34  41 CALM      30.11R
CORTEZ         CLEAR     61  32  33 SW8       30.02R
PAGOSA SPRINGS CLOUDY    56  30  36 CALM      30.18R
TELLURIDE      MOCLDY    48  28  45 SE9       30.21R
WOLF CREEK PAS NOT AVBL
$$

COZ009-010-012-014-032>034-037-058>063-030500-
...CENTRAL COLORADO...

CITY           SKY/WX    TMP DP  RH WIND       PRES   REMARKS
ASPEN          MOCLDY    47  38  71 SE9       30.13F
BUENA VISTA    NOT AVBL
COPPER MTN     MOCLDY    36  30  80 S14G21    30.33F
BERTHOUD PASS  FAIR      28  19  69 W9        30.36S WCI  20
COTTONWOOD PAS MOCLDY    45  32  61 S7        30.24R
GUNNISON       MOCLDY    52  28  40 E7        30.14R
KREMMLING      MOCLDY    50  34  53 W5        30.12S
LEADVILLE      CLOUDY    39  32  76 E3        30.24S
MONARCH PASS   CLOUDY    34  30  86 MISG      30.45R
SALIDA         PTCLDY    55  36  50 S13G20    30.20R
SUNLIGHT       PTCLDY    37  32  81 E3        30.29R
WILKERSON PASS MOCLDY    37  28  70 W9G21     30.33R
$$

COZ069>075-030500-
...SAN LUIS VALLEY/SANGRE DE CRISTO MOUNTAINS...

CITY           SKY/WX    TMP DP  RH WIND       PRES   REMARKS
ALAMOSA        CLOUDY    49  39  68 CALM      30.16R
LA VETA PASS   CLOUDY    39  32  75 MISG      30.25R
SAGUACHE       MOCLDY    45  36  70 NE6       30.19R
$$

COZ035-036-038>040-030500-
...NORTHERN COLORADO FRONT RANGE...

CITY           SKY/WX    TMP DP  RH WIND       PRES   REMARKS
DENVER INTL AP MOCLDY    52  40  63 S8        29.99R
DMNS CITY PARK   N/A     58  38  48 SW5       29.99F
AURORA         MOCLDY    52  41  65 S8        30.02R
FRONT RANGE AP NOT AVBL
ERIE MUNI ARPT MOCLDY    54  42  64 S8        29.97S
BOULDER MUN AP MOCLDY    63  34  34 W7        29.97S
CENTENNIAL     MOCLDY    51  40  65 SW7       30.03R
BROOMFIELD     MOCLDY    55  41  58 NW6       30.00
FORT COLLINS   CLOUDY    61  36  39 SW6       29.96S
LONGMONT       CLOUDY    58  42  56 SW3       29.97F
$$

COZ041-046-047-076>085-087-088-030500-
...PIKES PEAK/PALMER DIVIDE AND SOUTHERN FOOTHILLS...

CITY           SKY/WX    TMP DP  RH WIND       PRES   REMARKS
COLO. SPRINGS  CLOUDY    60  37  42 NW14      30.04R
A. F. ACADEMY  CLOUDY    55  37  51 CALM      30.06R
ELLICOTT       CLOUDY   N/A N/A N/A N8        30.05R
FALCON         CLOUDY    55  38  52 N8        30.10R
FORT CARSON    CLOUDY    58  39  48 VRB2      30.01R
LIMON          CLOUDY    57  40  52 W6        30.01R
MONUMENT HILL  CLOUDY    50  36  57 SE5       30.08F
TRINIDAD       CLOUDY    58  38  47 VRB7      30.02R
$$

COZ042>045-048>051-090-091-030500-
...NORTHEAST COLORADO...

CITY           SKY/WX    TMP DP  RH WIND       PRES   REMARKS
GREELEY ARPT   CLOUDY    55  39  54 CALM      29.93F
AKRON          MOCLDY    58  43  57 SE6       29.93F
BURLINGTON     CLOUDY    64  43  46 W17       29.96R
WRAY           CLOUDY    67  42  40 W12       29.87F
STERLING       MOCLDY    55  50  82 W9        29.88S
HOLYOKE        NOT AVBL
FORT MORGAN    MOCLDY    53  25  33 W3        29.94F
$$

COZ086-089-092>099-030500-
...SOUTHEAST COLORADO...

CITY           SKY/WX    TMP DP  RH WIND       PRES   REMARKS
PUEBLO         MOCLDY    59  44  57 NE7       29.96R
LA JUNTA       CLOUDY    65  42  43 MISG      29.92R
LAMAR          CLOUDY    63  48  58 NE18G29   29.88F
SPRINGFIELD      N/A     58  44  60 N12       29.93S
$$


USA.gov is the U.S. government's official web portal to all federal, state and local government web resources and services.